User: anonymous   Login
Location: Caltech
(34.1382°N, 118.1253°W)
Time: 08:58:26
(UTC-07:00)
Language:

Gbstr 26 Del rocket - Orbit

View from above orbital plane
View from above orbital plane
View from above satellite
View from above satellite

Ground track
Ground track

The orbit data is extracted from the following two-line orbital elements,

1 25876U 99041E   15114.45377859  .00002550  00000-0  47904-3 0  9990
2 25876 051.7665 171.2772 0535732 262.1210 091.8612 14.03152555804398
Epoch (UTC): 24 April 2015 10:53:26
Eccentricity: 0.0535732
inclination: 51.7665°
perigee height: 494 km
apogee height: 1272 km
right ascension of ascending node: 171.2772°
argument of perigee: 262.1210°
revolutions per day: 14.03152555
mean anomaly at epoch: 91.8612°
orbit number at epoch: 80439

The dashed part of the orbit path shows where the satellite is in the earth's shadow,  

DLR